Погода в Кедвавоме

Россия / Республика Коми     64°13′32″N   53°33′55″E
темп.,
°C
ветер,
м/с
пор.,
м/с
влажн.,
%
обл.,
%
осадки,
мм/ч
давл.,
гПа
погр.,
м
12 августа, пт
пт1200:00+16юз31156100 0.0 1009384
03:00+15юз41267100 0.0 1008537
06:00+14зюз41294100 1.3 1007574
09:00+15з4990100 1.6 1007966
12:00+18зсз4868100 0.8 10061202
15:00+20зсз3743100 0.9 10061080
18:00+18зсз385672 0.0 1006482
21:00+13сз41077100 0.6 1008613
13 августа, сб
сб1300:00+12сз4107733 0.2 1010783
03:00+8зсз39945 0.2 1012309
06:00+11з48725 0.0 1012490
09:00+15зсз6105915 0.3 10121506
12:00+15сз51044100 0.1 10132178
15:00+14сз51150100 0.1 10141683
18:00+13зсз5115898 0.0 10151518
21:00+12зсз4106693 0.0 10161264
14 августа, вс
вс1400:00+10сз4107981 0.1 10171098
03:00+9зсз4871100 0.2 1018766
06:00+10сз4761100 0.0 10191326
09:00+12сз4648100 0.0 10201547
12:00+15ссз464289 0.0 10201910
15:00+14ссз474542 0.0 10211781
18:00+12ссв2455100 0.0 1021284
21:00+10ююз2461100 0.0 1022119
15 августа, пн
пн1500:00+10юз256557 0.0 1021157
03:00+10юз2669100 0.0 1021169
06:00+11зюз31070100 0.1 1021575
09:00+12юз387853 0.4 1020464
12:00+18зсз4657100 0.6 10191439
15:00+17з587186 1.8 1019791
18:00+14сз498912 1.4 1020464
21:00+10сз28960 1.5 1022176
16 августа, вт
вт1600:00+7сз28936 0.0 1023164
03:00+5зсз26965 0.0 1025141
06:00+8сз369193 0.0 1026269
09:00+13сз36595 0.0 10261098
12:00+17ссз463717 0.0 10261582
15:00+18с46345 0.0 10261518
18:00+16всв115311 0.0 102611
21:00+12ю245934 0.0 102681